Weather History for Bilbao, Spain

Change the Weather History Date:

Wednesday, September 11, 2013

  Actual Average Record
Temperature  
Mean Temperature 62 °F -  
Max Temperature 68 °F 73 °F 84 °F (2006)
Min Temperature 55 °F 56 °F 46 °F (1996)
Degree Days  
Heating Degree Days 4    
Growing Degree Days 12 (Base 50)    
Moisture  
Dew Point 55 °F    
Average Humidity 77    
Maximum Humidity 100    
Minimum Humidity 56    
Precipitation  
Precipitation 0.00 in - - ()
Sea Level Pressure  
Sea Level Pressure 30.24 in    
Wind  
Wind Speed 3 mph ()    
Max Wind Speed 9 mph    
Max Gust Speed -    
Visibility 6.2 miles    
Events Rain    
Averages and records for this station are not official NWS values.
T = Trace of Precipitation, MM = Missing Value Source: Averaged Metar Reports

Daily Weather History Graph

Daily Weather History Graph

Search for Another Location

Airport:

Trip Planner

Search our weather history database for the weather conditions in past years. The results will help you decide how hot, cold, wet, or windy it might be!

Date:

Astronomy

Sep. 11, 2013 Rise Set
Actual Time 7:46 AM CEST 8:28 PM CEST
Civil Twilight 7:17 AM CEST 8:57 PM CEST
Nautical Twilight 6:43 AM CEST 9:31 PM CEST
Astronomical Twilight 6:08 AM CEST 10:07 PM CEST
Moon 2:10 PM CEST (9/11) No Moon Set
Length of Visible Light 13h 39m
Length of Day
12h 42m
Waxing Crescent, 36% of the Moon is Illuminated
Sep 11
Waxing Crescent
Sep 12
First Quarter
Sep 19
Full
Sep 27
Last Quarter
Oct 5
New

Hourly Weather History & Observations

Time (CEST) Temp. Dew Point Humidity Pressure Visibility Wind Dir Wind Speed Gust Speed Precip Events Conditions
5:00 AM 57.2 °F 55.4 °F 94% 30.24 in 6.2 mi Variable 1.2 mph - N/A   Scattered Clouds
5:30 AM 57.2 °F 55.4 °F 94% 30.24 in 6.2 mi Variable 2.3 mph - N/A   Scattered Clouds
6:00 AM 57.2 °F 55.4 °F 94% 30.24 in 6.2 mi Variable 2.3 mph - N/A   Scattered Clouds
6:30 AM 57.2 °F 55.4 °F 94% 30.24 in 6.2 mi Variable 2.3 mph - N/A   Scattered Clouds
7:00 AM 57.2 °F 55.4 °F 94% 30.24 in 6.2 mi Variable 2.3 mph - N/A   Scattered Clouds
7:30 AM 57.2 °F 55.4 °F 94% 30.24 in 6.2 mi Variable 2.3 mph - N/A   Scattered Clouds
8:00 AM 55.4 °F 55.4 °F 100% 30.24 in 6.2 mi Variable 2.3 mph - N/A   Scattered Clouds
8:30 AM 57.2 °F 55.4 °F 94% 30.24 in 6.2 mi Variable 2.3 mph - N/A   Scattered Clouds
9:00 AM 57.2 °F 55.4 °F 94% 30.24 in 6.2 mi Variable 2.3 mph - N/A   Scattered Clouds
9:30 AM 59.0 °F 57.2 °F 94% 30.24 in 6.2 mi ESE 3.5 mph - N/A   Partly Cloudy
10:00 AM 60.8 °F 57.2 °F 88% 30.24 in 6.2 mi Variable 2.3 mph - N/A   Partly Cloudy
10:30 AM 64.4 °F 59.0 °F 83% 30.27 in 6.2 mi Variable 1.2 mph - N/A   Partly Cloudy
11:00 AM 66.2 °F 59.0 °F 78% 30.27 in 6.2 mi Calm Calm - N/A   Partly Cloudy
11:30 AM 68.0 °F 57.2 °F 68% 30.27 in 6.2 mi Variable 1.2 mph - N/A   Scattered Clouds
12:00 PM 68.0 °F 55.4 °F 64% 30.27 in 6.2 mi NNW 4.6 mph - N/A   Scattered Clouds
12:30 PM 68.0 °F 51.8 °F 56% 30.27 in 6.2 mi North 6.9 mph - N/A   Scattered Clouds
1:00 PM 66.2 °F 53.6 °F 64% 30.24 in 6.2 mi North 9.2 mph - N/A   Scattered Clouds
1:30 PM 66.2 °F 55.4 °F 68% 30.24 in 6.2 mi NW 8.1 mph - N/A   Scattered Clouds
2:00 PM 68.0 °F 55.4 °F 64% 30.24 in 6.2 mi NW 9.2 mph - N/A   Partly Cloudy
2:30 PM 66.2 °F 55.4 °F 68% 30.24 in 6.2 mi NNW 4.6 mph - N/A   Scattered Clouds
3:00 PM 66.2 °F 55.4 °F 68% 30.24 in 6.2 mi NE 8.1 mph - N/A   Scattered Clouds
3:30 PM 66.2 °F 53.6 °F 64% 30.24 in 6.2 mi NE 3.5 mph - N/A   Mostly Cloudy
4:00 PM 66.2 °F 53.6 °F 64% 30.24 in 6.2 mi Variable 1.2 mph - N/A   Mostly Cloudy
4:30 PM 66.2 °F 57.2 °F 73% 30.24 in 6.2 mi North 4.6 mph - N/A Rain Light Rain
5:00 PM 66.2 °F 55.4 °F 68% 30.24 in 6.2 mi ENE 4.6 mph - N/A   Mostly Cloudy
5:30 PM 68.0 °F 55.4 °F 64% 30.24 in 6.2 mi NE 4.6 mph - N/A   Scattered Clouds
6:00 PM 66.2 °F 53.6 °F 64% 30.24 in 6.2 mi NE 6.9 mph - N/A   Scattered Clouds
6:30 PM 68.0 °F 53.6 °F 60% 30.24 in 6.2 mi ENE 6.9 mph - N/A   Scattered Clouds
7:00 PM 66.2 °F 53.6 °F 64% 30.24 in 6.2 mi NE 5.8 mph - N/A   Scattered Clouds
7:30 PM 66.2 °F 53.6 °F 64% 30.24 in 6.2 mi NNE 3.5 mph - N/A   Mostly Cloudy
8:00 PM 64.4 °F 53.6 °F 68% 30.24 in 6.2 mi Variable 2.3 mph - N/A   Scattered Clouds
8:30 PM 64.4 °F 53.6 °F 68% 30.24 in 6.2 mi Variable 1.2 mph - N/A   Scattered Clouds
9:00 PM 62.6 °F 55.4 °F 77% 30.24 in 6.2 mi Calm Calm - N/A   Mostly Cloudy
9:30 PM 62.6 °F 55.4 °F 77% 30.24 in 6.2 mi Variable 1.2 mph - N/A   Mostly Cloudy
10:00 PM 60.8 °F 55.4 °F 82% 30.24 in 6.2 mi Calm Calm - N/A   Mostly Cloudy
10:30 PM 60.8 °F 55.4 °F 82% 30.24 in 6.2 mi Calm Calm - N/A   Mostly Cloudy
11:00 PM 59.0 °F 55.4 °F 88% 30.24 in 6.2 mi Variable 1.2 mph - N/A   Mostly Cloudy
11:30 PM 60.8 °F 55.4 °F 82% 30.27 in 6.2 mi Variable 1.2 mph - N/A   Scattered Clouds